EN

Hourly Weather Monor

Today, 31 October, Saturday

Time Temperature Precipitation Wind Pressure Humidity
00:00 +11°C° 0.1 mm 6 mps 752 mmHg 86%
01:00 +11°C° 0 mm 7 mps 751 mmHg 86%
02:00 +11°C° 0.1 mm 7 mps 751 mmHg 85%
03:00 +12°C° 0.1 mm 8 mps 751 mmHg 85%
04:00 +12°C° 0.1 mm 8 mps 750 mmHg 85%
05:00 +12°C° 0 mm 8 mps 751 mmHg 84%
06:00 +12°C° 0 mm 8 mps 751 mmHg 84%
07:00 +12°C° 0 mm 9 mps 751 mmHg 83%
08:00 +12°C° 0 mm 8 mps 751 mmHg 83%
09:00 +12°C° 0 mm 8 mps 752 mmHg 82%
10:00 +12°C° 0 mm 7 mps 752 mmHg 82%
11:00 +13°C° 0 mm 6 mps 752 mmHg 79%
12:00 +14°C° 0 mm 5 mps 753 mmHg 77%
13:00 +14°C° 0 mm 4 mps 753 mmHg 77%
14:00 +14°C° 0 mm 3 mps 753 mmHg 75%
15:00 +14°C° 0 mm 2 mps 753 mmHg 74%
16:00 +13°C° 0 mm 2 mps 753 mmHg 72%
17:00 +12°C° 0 mm 2 mps 754 mmHg 72%
18:00 +12°C° 0 mm 2 mps 754 mmHg 71%
19:00 +10°C° 0 mm 3 mps 754 mmHg 70%
20:00 +9°C° 0 mm 3 mps 755 mmHg 72%
21:00 +9°C° 0 mm 2 mps 755 mmHg 73%
22:00 +8°C° 0 mm 2 mps 755 mmHg 75%
23:00 +8°C° 0 mm 2 mps 755 mmHg 76%

Tomorrow, 1 November, Sunday

Time Temperature Precipitation Wind Pressure Humidity
00:00 +8°C° 0 mm 1 mps 755 mmHg 76%
01:00 +8°C° 0 mm 1 mps 755 mmHg 77%
02:00 +8°C° 0 mm 1 mps 755 mmHg 77%
03:00 +8°C° 0 mm 1 mps 755 mmHg 77%
04:00 +7°C° 0 mm 1 mps 755 mmHg 77%
05:00 +7°C° 0 mm 1 mps 755 mmHg 77%
06:00 +7°C° 0 mm 1 mps 755 mmHg 77%
07:00 +7°C° 0 mm 1 mps 755 mmHg 78%
08:00 +8°C° 0 mm 1 mps 755 mmHg 73%
09:00 +9°C° 0 mm 1 mps 755 mmHg 69%
10:00 +9°C° 0 mm 2 mps 755 mmHg 65%
11:00 +10°C° 0 mm 2 mps 754 mmHg 63%
12:00 +12°C° 0 mm 2 mps 754 mmHg 60%
13:00 +12°C° 0 mm 2 mps 754 mmHg 58%
14:00 +12°C° 0 mm 2 mps 753 mmHg 60%
15:00 +12°C° 0 mm 2 mps 753 mmHg 61%
16:00 +12°C° 0 mm 2 mps 753 mmHg 63%
17:00 +12°C° 0 mm 2 mps 753 mmHg 64%
18:00 +12°C° 0 mm 2 mps 753 mmHg 66%
19:00 +10°C° 0 mm 2 mps 753 mmHg 67%
20:00 +10°C° 0.3 mm 2 mps 753 mmHg 69%
21:00 +10°C° 0.3 mm 2 mps 752 mmHg 71%
22:00 +10°C° 0.3 mm 2 mps 752 mmHg 73%
23:00 +10°C° 0.2 mm 2 mps 752 mmHg 75%

Day after tomorrow, 2 November, Monday

Time Temperature Precipitation Wind Pressure Humidity
00:00 +10°C° 0.2 mm 2 mps 752 mmHg 77%
01:00 +10°C° 0.2 mm 2 mps 752 mmHg 79%
02:00 +10°C° 0.2 mm 2 mps 752 mmHg 80%
03:00 +12°C° 0.2 mm 2 mps 752 mmHg 81%
04:00 +12°C° 0.2 mm 2 mps 752 mmHg 82%
05:00 +12°C° 0 mm 2 mps 752 mmHg 82%
06:00 +12°C° 0 mm 2 mps 752 mmHg 83%
07:00 +12°C° 0 mm 2 mps 752 mmHg 83%
08:00 +12°C° 0 mm 2 mps 752 mmHg 82%
09:00 +13°C° 0 mm 2 mps 752 mmHg 82%
10:00 +13°C° 0 mm 2 mps 753 mmHg 81%
11:00 +13°C° 0.1 mm 2 mps 753 mmHg 83%
12:00 +13°C° 0.1 mm 2 mps 753 mmHg 84%
13:00 +13°C° 0.1 mm 2 mps 752 mmHg 86%
14:00 +13°C° 0.1 mm 2 mps 752 mmHg 87%
15:00 +13°C° 0.1 mm 2 mps 752 mmHg 88%
16:00 +13°C° 0.1 mm 1 mps 752 mmHg 89%
17:00 +13°C° 0 mm 2 mps 752 mmHg 89%
18:00 +13°C° 0 mm 2 mps 753 mmHg 90%
19:00 +13°C° 0 mm 2 mps 753 mmHg 90%
20:00 +13°C° 0 mm 2 mps 753 mmHg 90%
21:00 +13°C° 0 mm 2 mps 753 mmHg 90%
22:00 +13°C° 0 mm 2 mps 753 mmHg 91%
23:00 +13°C° 0 mm 1 mps 753 mmHg 90%

3 November, Tuesday

Time Temperature Precipitation Wind Pressure Humidity
00:00 +13°C° 0 mm 1 mps 753 mmHg 90%
01:00 +13°C° 0 mm 1 mps 753 mmHg 89%
02:00 +12°C° 0 mm 0 mps 753 mmHg 89%
03:00 +12°C° 0 mm 0 mps 753 mmHg 90%
04:00 +12°C° 0 mm 0 mps 753 mmHg 90%
05:00 +12°C° 0 mm 0 mps 753 mmHg 90%
06:00 +12°C° 0 mm 0 mps 753 mmHg 90%
07:00 +12°C° 0 mm 0 mps 754 mmHg 91%
08:00 +12°C° 0 mm 0 mps 754 mmHg 87%
09:00 +14°C° 0 mm 1 mps 754 mmHg 84%
10:00 +15°C° 0 mm 1 mps 755 mmHg 81%
11:00 +16°C° 0 mm 1 mps 755 mmHg 79%
12:00 +16°C° 0 mm 1 mps 754 mmHg 77%
13:00 +18°C° 0 mm 1 mps 754 mmHg 75%
14:00 +16°C° 0 mm 1 mps 754 mmHg 78%
15:00 +16°C° 0 mm 1 mps 754 mmHg 81%
16:00 +15°C° 0 mm 1 mps 754 mmHg 84%
17:00 +15°C° 0 mm 1 mps 754 mmHg 86%
18:00 +14°C° 0 mm 1 mps 755 mmHg 88%
19:00 +14°C° 0 mm 1 mps 755 mmHg 90%
20:00 +13°C° 0 mm 1 mps 755 mmHg 91%
21:00 +13°C° 0 mm 1 mps 755 mmHg 92%
22:00 +13°C° 0 mm 2 mps 755 mmHg 94%
23:00 +13°C° 0 mm 1 mps 755 mmHg 94%

4 November, Wednesday

Time Temperature Precipitation Wind Pressure Humidity
00:00 +12°C° 0 mm 1 mps 755 mmHg 94%
01:00 +12°C° 0 mm 1 mps 755 mmHg 94%
02:00 +12°C° 0 mm 1 mps 755 mmHg 94%
03:00 +12°C° 0 mm 1 mps 755 mmHg 94%
04:00 +12°C° 0 mm 1 mps 755 mmHg 94%
05:00 +12°C° 0 mm 1 mps 755 mmHg 94%
06:00 +12°C° 0 mm 1 mps 755 mmHg 94%
07:00 +12°C° 0 mm 1 mps 755 mmHg 94%
08:00 +13°C° 0 mm 1 mps 755 mmHg 89%
09:00 +14°C° 0 mm 2 mps 756 mmHg 84%
10:00 +15°C° 0 mm 2 mps 756 mmHg 78%
11:00 +15°C° 0 mm 2 mps 756 mmHg 76%
12:00 +16°C° 0 mm 3 mps 755 mmHg 73%
13:00 +16°C° 0 mm 3 mps 755 mmHg 70%
14:00 +16°C° 0 mm 3 mps 755 mmHg 72%
15:00 +14°C° 0 mm 3 mps 755 mmHg 74%
16:00 +13°C° 0 mm 3 mps 755 mmHg 75%
17:00 +13°C° 0 mm 3 mps 755 mmHg 77%
18:00 +12°C° 0 mm 3 mps 755 mmHg 78%
19:00 +12°C° 0 mm 3 mps 756 mmHg 80%
20:00 +11°C° 0 mm 3 mps 756 mmHg 81%
21:00 +12°C° 0 mm 2 mps 756 mmHg 82%
22:00 +12°C° 0 mm 2 mps 756 mmHg 83%
23:00 +10°C° 0 mm 2 mps 756 mmHg 84%

5 November, Thursday

Time Temperature Precipitation Wind Pressure Humidity
00:00 +10°C° 0 mm 2 mps 757 mmHg 85%
01:00 +10°C° 0 mm 2 mps 757 mmHg 86%
02:00 +10°C° 0 mm 2 mps 757 mmHg 86%
03:00 +12°C° 0 mm 2 mps 757 mmHg 85%
04:00 +12°C° 0 mm 1 mps 757 mmHg 85%
05:00 +12°C° 0 mm 1 mps 757 mmHg 85%
06:00 +12°C° 0 mm 1 mps 757 mmHg 85%
07:00 +12°C° 0 mm 1 mps 758 mmHg 85%
08:00 +12°C° 0 mm 1 mps 758 mmHg 83%
09:00 +13°C° 0 mm 1 mps 758 mmHg 82%
10:00 +13°C° 0 mm 1 mps 758 mmHg 81%
11:00 +13°C° 0 mm 1 mps 758 mmHg 81%
12:00 +13°C° 0 mm 1 mps 758 mmHg 81%
13:00 +14°C° 0 mm 1 mps 758 mmHg 80%
14:00 +13°C° 0.1 mm 1 mps 758 mmHg 83%
15:00 +13°C° 0.1 mm 1 mps 758 mmHg 85%
16:00 +13°C° 0.1 mm 1 mps 758 mmHg 87%
17:00 +13°C° 0.3 mm 2 mps 758 mmHg 88%
18:00 +12°C° 0.3 mm 3 mps 759 mmHg 88%
19:00 +11°C° 0.3 mm 3 mps 759 mmHg 88%
20:00 +11°C° 0.3 mm 3 mps 759 mmHg 87%
21:00 +11°C° 0.3 mm 3 mps 759 mmHg 86%
22:00 +11°C° 0.3 mm 3 mps 760 mmHg 84%
23:00 +11°C° 0.1 mm 3 mps 760 mmHg 83%
Show more